www.pogodaiklimat.ru
ПОГОДА в Покипси
Время
и дата
02:53 29.10
03:53 29.10
04:53 29.10
05:53 29.10
06:53 29.10
07:53 29.10
08:21 29.10
08:25 29.10
08:26 29.10
08:53 29.10
09:53 29.10
10:37 29.10
10:53 29.10
11:53 29.10
12:53 29.10
13:00 29.10
13:09 29.10
13:53 29.10
14:37 29.10
14:46 29.10
14:53 29.10
14:55 29.10
15:27 29.10
15:38 29.10
15:53 29.10
16:05 29.10
16:12 29.10
16:15 29.10
16:53 29.10
17:03 29.10
17:18 29.10
17:29 29.10
17:37 29.10
17:53 29.10
18:06 29.10
18:24 29.10
18:40 29.10
18:53 29.10
19:14 29.10
19:53 29.10
20:20 29.10
20:48 29.10
20:53 29.10
21:00 29.10
21:53 29.10
22:23 29.10
22:53 29.10
23:18 29.10
Ветер
(напр.,м/с)
Видим. Явления Облачность Т
(С)
Тd
(С)
f
(%)
Тe
(С)
Тes
(С)
Комфортность P
(гПа)
Po
(гПа)
Тmin
(С)
Tmax
(С)
R
(мм)
R24
(мм)
S
(см)
штиль 0 16 км 8/0 3300 м
[Ac]
+7.8 +6.7 93 +7 +7 1013.3 1007.4
штиль 0 16 км 8/0 3300 м
[Ac]
+7.8 +6.7 93 +7 +7 1013.2 1007.4
штиль 0 16 км 10/0 2550 м
[Ac]
+8.3 +7.2 93 +7 +7 1013.2 1007.4
С 1 16 км 10/0 3000 м
[Ac]
+8.3 +7.2 93 +6 +6 1012.7 1007.1
штиль 0 14 км слабый дождь 10/2 1950 м
[Ac]
+8.3 +7.2 93 +7 +7 1012.3 1006.4 +6.7 +8.3 0.5 3.6
СВ 1 5 км дождь, дымка 10/2 1950 м
[Ac]
+8.3 +7.2 93 +6 +6 1012.3 1006.4
штиль 0 3 км дождь, дымка 10/5 1800 м
[Ac]
+8.3 +7.8 97 +7 +8 1006.1
штиль 0 3 км слабый дождь, дымка 10/5 1800 м
[Ac]
+8.3 +7.2 93 +7 +8 1006.1
штиль 0 3 км слабый дождь, дымка 10/5 1650 м
[Ac]
+8.3 +7.2 93 +7 +8 1006.1
штиль 0 4 км слабый дождь, дымка 10/10 1650 м +8.9 +7.8 93 +8 +8 1011.5 1005.8
штиль 0 6 км слабый дождь, дымка 10/10 270 м +8.9 +7.8 93 +8 +8 1010.5 1004.7 5.8
ЮВ 1 4 км дождь, дымка 10/10 270 м +8.9 +7.2 89 +6 +6 1004.7
В 1 4 км дождь, дымка 10/10 270 м +8.9 +6.7 86 +7 +7 1010.5 1004.7
СВ 1 4 км слабый дождь, дымка 10/10 1650 м +8.3 +7.2 93 +6 +6 1008.9 1003.1
штиль 0 4 км дождь, дымка 10/10 870 м +8.3 +7.2 93 +7 +7 1008.3 1002.4 +8.3 +8.9 15.7
С 1 4 км сильный дождь, дымка 10/10 180 м +8.3 +7.2 93 +6 +6 1002.0
СВ 1 4 км дождь, дымка 10/8 870 м
[Ac]
+8.3 +7.2 93 +6 +6 1001.0
СВ 2 4 км дождь, дымка 10/8 180 м
[Ac]
+8.3 +7.2 93 +5 +5 1005.7 1000.0
С 1 4 км сильный дождь, дымка 10/10 210 м +8.3 +7.2 93 +6 +6 999.4
С 1 3 км дождь, дымка 10/10 210 м +8.3 +7.2 93 +6 +6 999.4
С 1 4 км дождь, дымка 10/10 210 м +8.3 +7.2 93 +6 +6 1004.8 999.0
С 2 4 км дождь, дымка 10/10 210 м +8.3 +7.2 93 +5 +5 999.0
С 1 5 км слабый дождь, дымка 10/10 240 м +8.3 +6.7 90 +6 +6 998.3
С 1 3 км дождь, дымка 10/10 240 м +8.3 +7.2 93 +6 +6 998.3
С 2 5 км слабый дождь, дымка 10/10 210 м +8.3 +7.2 93 +5 +5 1004.1 998.3 9.4
С 2 5 км слабый дождь, дымка 10/10 180 м +8.3 +7.2 93 +5 +5 998.7
С 2 3 км слабый дождь, дымка 10/10 180 м +8.3 +6.7 90 +5 +5 998.7
С 2 3 км слабый дождь, дымка 10/10 180 м +8.3 +6.7 90 +5 +5 998.3
С 2 2 км слабый дождь, дымка 10/10 150 м +8.3 +7.2 93 +5 +5 1004.1 998.3
С 2 5 км слабый дождь, дымка 10/10 150 м +8.3 +6.7 90 +5 +5 998.3
С 2 4 км слабый дождь, дымка 10/10 210 м +8.3 +6.7 90 +5 +5 998.0
С 2 4 км дождь, дымка 10/10 210 м +8.3 +6.7 90 +5 +5 998.0
С 2 5 км слабый дождь, дымка 10/10 210 м +8.3 +6.7 90 +5 +5 998.0
С 2 4 км дождь, дымка 10/10 180 м +8.3 +6.7 90 +5 +5 1004.0 998.0
С 2 5 км слабый дождь, дымка 10/10 150 м +8.3 +6.7 90 +5 +5 998.0
С 2 6 км слабый дождь, дымка 10/10 180 м +8.3 +6.7 90 +5 +5 998.0
С 2 5 км слабый дождь, дымка 10/10 240 м +8.3 +6.7 90 +5 +5 997.7
С 2 6 км слабый дождь, дымка 10/10 300 м +8.3 +6.7 90 +5 +5 1003.3 997.3 +7.8 +8.9 14.0
С 2 11 км 10/10 270 м +7.8 +6.7 93 +4 +4 997.3
С 2 6 км слабый дождь, дымка 10/10 180 м +7.8 +6.7 93 +4 +4 1003.4 997.7
С 2 5 км слабый дождь, дымка 10/10 210 м +7.8 +6.7 93 +4 +4 998.3
С 2 5 км слабый дождь, дымка 10/10 210 м +8.0 +6.0 87 +4 +4 998.7
С 2 6 км слабый дождь, дымка 10/10 210 м +7.8 +6.1 89 +4 +4 1004.4 998.7
С 2 6 км слабый дождь, дымка 10/10 210 м +7.8 +6.1 89 +4 +4 998.7
С 2 6 км слабый дождь, дымка 10/10 210 м +7.2 +5.6 90 +3 +3 1005.0 999.4 1.8
С 3 16 км 10/10 270 м +7.2 +5.6 90 +3 +3 999.4
С 2 6 км дымка 10/10 330 м +7.2 +5.6 90 +4 +4 1005.5 999.7
С 2 5 км слабый дождь, дымка 10/10 270 м +6.7 +5.6 93 +3 +3 1000.0
Местоположение метеостанции Dutchess County Airport: широта 41.6267 долгота -73.8842 высота над уровнем моря 50 м.
В архиве по умолчанию представлена погода в Покипси за последние 1-2 суток. Обновление информации о фактической погоде в базе происходит ежечасно! Архивные данные за месяц целиком и за предыдущие месяцы Вы можете получить, выбрав интересующий диапазон дат из раскрывающегося списка и нажав кнопку "Ввод!".
Внимание! Архив погоды МЕТАР в базе сайта по станциям, не включенным в климатический монитор, хранится не более 60 дней. Нет смысла пытаться выбрать более раннюю дату.
*Определитесь, кто Вы:
Внимание! Время в таблицах - местное (без учета летнего времени). Для получения всемирного времени необходимо вычесть поправку, которая равна -5 ч.
Смотрите также архив погоды в соседних городах и на ближайших метеорологических станциях:
Партнеры нашего сайта:      
Пояснения к столбцам:
  • Ветер - указаны скорость ветра в м/с - средняя за 10 мин, порывы в срок и между сроками (в фигурных скобках) и направление, откуда дует ветер: С - северный,
  • СВ - северо-восточный, В - восточный, ЮВ - юго-восточный, Ю - южный, ЮЗ - юго-западный, З - западный, СЗ - северо-западный.
  • Видимость - горизонтальная дальность видимости в метрах или километрах. При видимости от 1 до 10 км при отсутствии осадков обычно наблюдается дымка, при ухудшении видимости до 1 км и менее - туман. В сухую погоду видимость может ухудшаться дымом, пылью или мглою.
  • Явления - указаны атмосферные явления, наблюдавшиеся в срок или в последний час перед сроком; фигурными скобками обозначены явления, наблюдавшиеся между сроками (за 1-3 часа до срока); квадратными скобками обозначены град или гололедные отложения с указанием их диаметра в мм.
  • Облачность - указаны через наклонную черту общая и нижняя облачность в баллах и высота нижней границы облаков в метрах; квадратными скобками обозначены формы облаков: Ci - перистые, Cs - перисто-слоистые, Cc - перисто-кучевые, Ac - высококучевые, As - высокослоистые, Sc - слоисто-кучевые, Ns - слоисто-дождевые, Cu - кучевые, Cb - кучево-дождевые. Подробнее классификацию облаков см. в Атласе облаков (PDF).
  • T - Температура воздуха - температура, измеренная на высоте 2 м над землей.
  • Td - Температура точки росы - температура, при понижении до которой содержащийся в воздухе водяной пар достигнет насыщения.
  • f - Относительная влажность воздуха - влажноcть воздуха, измеренная на высоте 2 м над землей.
  • Te - Эффективная температура - температура, которую ощущает одетый по сезону человек в тени. Характеристика душности погоды. При расчете учитывается влияние влажности воздуха и скорости ветра на теплоощущения человека.
  • Tes - Эффективная температура на солнце - температура, которую ощущает человек, с поправкой на солнечный нагрев. Характеристика знойности погоды. Зависит от высоты солнца над горизонтом, облачности и скорости ветра. Ночью, в пасмурную погоду, а также при ветре 12 м/с и более поправка равна нулю.
  • P - Атмосферное давление - приведенное к уровню моря атмосферное давление.
  • Po - Атмосферное давление - измеренное на уровне метеостанции атмосферное давление.
  • Tmin - Минимальная температура - минимум температуры воздуха на высоте 2 м над землей.
  • Tmax - Максимальная температура - максимум температуры воздуха на высоте 2 м над землей.
  • R - Количество осадков - Количество выпавших осадков за период времени, мм. При наведении курсора мыши на число - период времени, за который выпало указанное количество осадков.
  • R24 - Количество осадков - Количество выпавших осадков за 24 часа, мм.
  • S - Снежный покров - Высота снежного покрова, см. При наведении курсора мыши на число - состояние снежного покрова и степень покрытия местности в баллах.